Showing default

HAIYANG 2B, 43655

Orbit data source: Space-Track

HAIYANG 2B, 43655 is a Chinese payload satellite in SSO that was launched on Wed, 24 Oct 2018 UTC via a CHANG ZHENG 4B launch vehicle from the Taiyaun Space Center, China (TSC). Payload-class satellites include a variety of spacecraft equipped with specific instruments for various scientific and technological missions. These include communications satellites like Starlink; space stations such as the ISS; scientific satellites like the Hubble; Earth observation satellites from companies like Planet Labs, Umbra, and HawkEye 360; GPS; miniature CubeSats for education and research; and military/defense satellites.

Loading next visibility...
Identifier
43655, 2018-081A
Orbit
SSO
Country
Flag of CNCN / PRC
Related business
Manufacturer
SISE
Mission
Operational Civil Earth Obs Sci
Bus & Motor
CAST-968?, Unknown motor
Mass
~1,500 kg wet, ~1,500 kg dry
Launch date (UTC)
2018-10-24 (8 years ago)
Launch vehicle
CHANG ZHENG 4B
Launch site
Taiyaun Space Center, China (TSC)
Object type
Payload
Rocket body
Debris
Shape & HBR
Box + 2 Pan, 2.0 m
Radar Cross Section
2.315 m², Large (>1 m²)

Expand to show TLE details & history
Last TLE update: 2 hours ago

TLE from 2 hours ago
0 HAIYANG 2B
1 43655U 18081A   26127.75892800  .00000097  00000-0  13734-3 0  9995
2 43655  99.3303 137.1239 0001835  58.6768 301.4563 13.79308433379355
Epoch: 2026-05-07T18:12Z
TLE epoch observation values (Epoch: 2026-05-07T18:12:51.379Z)
Latitude
-0.00004°
Longitude
-1.69064°
Altitude
968.476 km
Speed
7.368 km/s
True Right ascension
09h 08m 29s
True Declination
0° 00' 00"
Sunlit
Object was in daylight at epoch
Visualization orbit readout
Latitude
Unknown
Longitude
Unknown
Altitude
Unknown
Speed
Unknown
Apparent Right ascension
Unknown
Apparent Declination
Unknown
Sunlit
N/A
Visualization observer readout
Local Sidereal Time
03:52:30
Azimuth
Unknown
Elevation
Unknown
Doppler factor
Unknown
Orbital elements
Apogee altitude
964.931 km
Perigee altitude
962.237 km
Semi-major axis
7,341.721 km
Eccentricity
0.00018
Inclination
99.3303°
RAAN
137.1239°
Arg. of periapsis
58.6768°
True anomaly
301.43836°
Mean anomaly
301.4563°
Eccentric anomaly
301.44733°
Mean motion
3.45022 °/min
Orbital period
104.34 mins
BSTAR
0.00013734
Loading maneuver chart data...
Computing Atmospheric mass density...
Loading historical data...
Loading historical data...
Loading historical data...
Loading historical data...
Loading historical data...
Loading historical data...
Loading historical data...

Documentation

Showing up to 5 results
|